Starlink 5819

operational
NORAD ID: 55780 Int'l Des: 2023-028 Owner: SPXS Country: US Constellation: starlink
LEOCIRCULAR

About Starlink 5819

Description loading...

Live Position

Loading 3D Globe...

Upcoming Passes

Altitude History

Altitude vs Time

uPlot chart will show altitude changes over time

Two-Line Element Set

1 55780U 23028AR 25306.02009828 .00000072 00000-0 13826-4 0 9998
2 55780 70.0004 186.1860 0002265 275.0788 85.0112 14.98334634147419
Epoch: Nov 2, 2025 • Age: 43 hours

Current Status

Altitude 574.2 km
Velocity 7.57 km/s
Sub-Earth Point 2.87°N, 156.98°W
Launch Date Mar 3, 2023
Age 2.6 years
Type internet

Technical Details

Classification Payload
Mass 305.00 kg
Dry Mass 290.00 kg
Total Mass 305.00 kg
Length 0.20 m
Diameter 2.80 m
Span 9.00 m
Shape Box + pan
Manufacturer SPXS
Bus Type Starlink
Phase Status In Orbit
Owner/State SPXS/US

Large Constellations

Loading constellations...